Location: Chattahoochee River National Recreation Area
(34.0022°N, 84.2416°W)
Time: 13:04:23
(UTC-05:00)

Daily predictions for brighter satellites

Satellite Brightness Start Highest point End
(mag) Time Altitude Azimuth Time Altitude Azimuth Time Altitude Azimuth
Cosmos 2219 Rocket 3.3 18:48:32 10° N 18:52:51 22° ENE 18:57:10 10° ESE
Cosmos 2237 4.4 18:47:26 10° N 18:53:03 53° ENE 18:58:36 10° SE
COSMOS 2428 3.1 18:48:04 10° N 18:53:26 41° ENE 18:58:47 10° SE
Cosmos 2360 Rocket 2.4 18:48:56 10° NNW 18:54:37 83° WSW 19:00:17 10° SSE
Meteor 1-19 Rocket 4.3 18:49:47 10° N 18:55:30 65° E 19:01:16 10° SSE
SJ-6B 3.7 18:54:27 10° SE 18:57:54 29° ENE 19:01:18 10° NNE
Meteor 2-4 Rocket 3.8 18:56:09 10° N 19:01:26 49° E 19:06:35 10° SSE
USA 229 DEB 4.2 18:54:59 10° NNW 19:01:45 43° NE 19:08:33 10° ESE
USA 229 4.2 18:55:06 10° NNW 19:01:50 42° NE 19:08:39 10° ESE
Cosmos 2227 Rocket 3.1 18:57:39 10° SSE 19:02:19 27° ESE 19:07:00 10° NE
Cosmos 2219 3.4 18:57:21 10° SSW 19:03:06 80° WNW 19:08:51 10° NNE
Resurs 01 Rocket 2.9 19:05:03 10° ESE 19:08:21 21° ENE 19:11:38 10° NNE
Cosmos 1570 Rocket 4.0 19:05:10 10° NNW 19:10:24 71° ENE 19:15:37 10° SSE
SL-08 ROCKET BODY 4.5 19:04:49 10° S 19:10:55 65° E 19:17:02 10° NNE
NOAA 12 4.1 19:06:36 10° SSE 19:11:53 70° ENE 19:17:12 10° N
Meteor 1-23 Rocket 4.4 19:07:01 10° N 19:12:37 51° ENE 19:18:08 10° SSE
Spot 2 Rocket 4.4 19:10:33 10° SE 19:14:44 27° ENE 19:18:56 10° NNE
Okean 1 Rocket 3.6 19:10:55 10° SSW 19:15:21 66° W 19:19:49 10° N
Cosmos 1025 Rocket 3.3 19:12:38 10° N 19:16:53 47° E 19:21:06 10° SSE
FREGAT/IRIS 2.7 19:16:12 10° SSE 19:19:13 56° ENE 19:22:16 10° N
Cosmos 1892 Rocket 4.5 19:18:59 10° NNE 19:22:41 27° ENE 19:26:25 10° SE
Atlas Centaur 2 3.5 19:18:03 10° SW 19:25:22 38° SSE 19:30:22 16° E
GEOS 3 Rocket 4.2 19:21:44 10° NE 19:26:31 35° ESE 19:31:20 10° S
GPS 2-04 Rocket1 2.9 19:22:20 10° W 19:26:32 70° N 19:29:35 19° E
Cosmos 1536 3.9 19:26:10 10° SSW 19:30:00 47° W 19:33:52 10° N
OTV 4 1.0 19:27:09 10° W 19:30:02 48° NNW 19:31:45 21° NE
FENGYUN 3A 3.7 19:26:20 10° SSE 19:31:35 55° ENE 19:36:52 10° N
Cosmos 2074 Rocket 4.0 19:28:12 10° S 19:34:27 89° W 19:40:46 10° N
Okean 2 3.6 19:30:31 10° N 19:34:35 49° E 19:38:38 10° SSE
HJ-1C 3.4 19:34:24 10° SSE 19:37:42 58° ENE 19:41:02 10° N
Cosmos 1544 Rocket 3.6 19:36:49 10° S 19:41:02 53° E 19:45:14 10° NNE
Cosmos 2184 Rocket 4.2 19:36:52 10° S 19:43:11 79° W 19:49:27 10° N
Cosmos 1980 4.2 19:38:24 10° N 19:43:39 38° ENE 19:46:48 21° ESE
NOSS 0 Rocket 4.1 19:38:45 10° NNW 19:44:44 51° ENE 19:50:08 13° SE
Cosmos 2333 Rocket 2.4 19:41:33 10° N 19:47:10 52° ENE 19:51:57 14° SE
Helios 1B rocket 2.9 19:44:57 10° NNE 19:48:48 36° E 19:52:38 10° SSE
Helios 1A 3.7 19:52:55 31° ENE 19:52:55 31° ENE 19:56:25 10° N
Cosmos 1975 3.0 19:49:49 10° SSE 19:53:41 47° E 19:57:35 10° NNE
Cosmos 1500 3.3 19:52:15 10° SSE 19:55:54 47° E 19:59:32 10° NNE
Cosmos 1437 3.5 19:54:39 10° N 19:56:58 37° NNE 19:56:58 37° NNE
Skynet4D Del rocket 4.3 19:54:50 10° WSW 19:59:56 39° S 20:01:59 28° SE
CZ-3 Stage 3 4.3 19:06:14 10° SW 20:01:55 49° SSE 20:07:53 27° ESE
Cosmos 1486 Rocket 3.9 19:57:02 10° SSW 20:02:21 81° ESE 20:07:41 10° NNE
SL-19 R/B 4.3 19:57:24 10° SSE 20:03:05 84° ENE 20:09:11 10° NNW
Nadezhda 3 Rocket 3.9 19:58:01 10° N 20:04:06 59° E 20:10:13 10° SSE
Cosmos 2082 3.7 20:00:18 10° SSW 20:06:01 89° WNW 20:11:47 10° NNE
Cosmos 1515 3.9 20:02:17 10° N 20:05:38 51° NE 20:05:38 51° NE
Spot 1 4.1 20:11:15 53° NE 20:11:15 53° NE 20:14:59 10° N
Cosmos 841 Rocket 4.1 20:06:32 10° N 20:10:38 35° NE 20:10:38 35° NE
ATLAS CENTAUR R/B 3.0 20:08:27 10° WSW 20:12:25 28° WNW 20:13:25 22° NNW
Cosmos 2154 Rocket 4.0 20:06:37 10° S 20:12:58 88° W 20:19:20 10° N
Cosmos 2341 Rocket 3.9 20:08:39 10° S 20:14:57 71° E 20:21:19 10° N
Cosmos 1455 Rocket 3.4 20:13:52 10° SSW 20:18:12 66° W 20:22:32 10° N
Cosmos 1763 Rocket 3.5 20:15:01 10° N 20:20:06 56° ENE 20:20:13 56° ENE
Hubble Space Telescope 1.7 20:16:32 10° WSW 20:20:16 36° S 20:20:16 36° S
Cosmos 1503 Rocket 4.0 20:15:36 10° S 20:20:30 57° ESE 20:20:30 57° ESE
Cosmos 405 Rocket 4.0 20:21:07 10° NNW 20:24:56 42° W 20:28:40 10° SSW
Cosmos 2297 Rocket 2.4 20:19:30 10° SSW 20:25:07 71° WNW 20:30:47 10° NNE
H-2A R/B 3.7 20:22:32 14° S 20:25:30 45° W 20:29:07 10° NNW
ALOS 3.8 20:22:01 10° SSW 20:26:15 35° W 20:30:32 10° NNW
Meteor 2-19 Rocket 4.3 20:20:51 10° S 20:26:51 62° E 20:32:55 10° NNE
SEDSat Delta rocket 4.1 20:21:14 10° WSW 20:27:47 55° SSE 20:28:44 50° SE
Cosmos 2237 Rocket 2.1 20:22:16 10° NNW 20:28:00 86° ENE 20:29:45 47° SSE
OAO 3 Rocket 3.0 20:23:09 10° W 20:28:07 90° N 20:28:19 83° E
Cosmos 332 Rocket 4.3 20:24:22 10° N 20:28:03 46° NNE 20:28:03 46° NNE
Meteor 2-8 Rocket 4.3 20:24:01 10° N 20:30:02 62° E 20:30:43 58° ESE
CZ-2D R/B 3.8 20:30:05 55° WSW 20:30:18 56° W 20:34:05 10° NNW
Cosmos 1066 Rocket 4.0 20:30:15 10° N 20:35:50 78° E 20:36:02 77° ESE
Cosmos 2219 Rocket 3.2 20:31:41 10° NW 20:36:57 43° WSW 20:42:13 10° S
Resurs 01 Rocket 3.6 20:40:50 10° SSW 20:44:37 28° W 20:48:25 10° NW
Cosmos 2227 Rocket 3.7 20:41:04 10° SW 20:46:10 34° WNW 20:51:17 10° N
ATLAS 3B CENTAUR R/B 4.4 20:25:47 10° WSW 20:55:43 59° S 20:59:52 47° ESE
SL-16 R/B 3.3 20:59:45 10° NNW 21:03:01 36° N 21:03:01 36° N
NOSS 3-1 (A) 4.0 20:57:53 10° NNW 21:05:46 89° ENE 21:06:35 76° SSE
ATLAS 2AS CENTAUR R/B 4.2 21:04:21 10° NNW 21:09:17 28° NNE 21:09:17 28° NNE
Atlas Centaur 2 3.2 21:07:23 10° WSW 21:13:01 48° SW 21:13:01 48° SW
